This is the latest recevied weather packets stored in our database for station/object KH6DH-13. If no packets are shown the sender has not sent any weather packets the latest 10 day(s).
| Time | Temp. | Humidity | Pressure | Rain* | Wind** | Luminosity | Snow |
|---|---|---|---|---|---|---|---|
| 1778177901 | 24.44° C | - | - | 0 mm | 0 m/s | - | - |
| 1778177300 | 24.44° C | - | - | 0 mm | 0 m/s | - | - |
| 1778176699 | 24.44° C | - | - | 0 mm | 0 m/s | - | - |
| 1778176098 | 24.44° C | - | - | 0 mm | 0.45 m/s, 20° | - | - |
| 1778175497 | 23.89° C | - | - | 0 mm | 0.89 m/s, 32° | - | - |
| 1778174896 | 23.89° C | - | - | 0 mm | 0.45 m/s, 73° | - | - |
| 1778174295 | 23.89° C | - | - | 0 mm | 1.34 m/s, 44° | - | - |
| 1778173694 | 23.33° C | - | - | 0 mm | 1.34 m/s, 39° | - | - |
| 1778173093 | 23.89° C | - | - | 0 mm | 0.45 m/s, 60° | - | - |
| 1778172492 | 23.33° C | - | - | 0 mm | 0.89 m/s, 44° | - | - |
| 1778171891 | 23.33° C | - | - | 0 mm | 0.45 m/s, 42° | - | - |
| 1778171290 | 23.33° C | - | - | 0 mm | 0.89 m/s, 31° | - | - |
| 1778170689 | 22.78° C | - | - | 0 mm | 1.34 m/s, 18° | - | - |
| 1778170088 | 23.33° C | - | - | 0 mm | 1.34 m/s, 75° | - | - |
| 1778169487 | 22.78° C | - | - | 0 mm | 1.34 m/s, 91° | - | - |
| 1778168883 | 23.33° C | - | - | 0 mm | 0.89 m/s, 111° | - | - |
| 1778168282 | 23.33° C | - | - | 0 mm | 1.34 m/s, 75° | - | - |
| 1778167681 | 22.78° C | - | - | 0 mm | 1.79 m/s, 49° | - | - |
| 1778167080 | 22.78° C | - | - | 0 mm | 1.34 m/s, 52° | - | - |
| 1778166479 | 23.33° C | - | - | 0 mm | 1.34 m/s, 87° | - | - |
| 1778165878 | 23.33° C | - | - | 0 mm | 1.34 m/s, 60° | - | - |
| 1778164643 | 23.33° C | - | - | 0 mm | 1.79 m/s, 53° | - | - |
| 1778164042 | 23.33° C | - | - | 0 mm | 1.79 m/s, 89° | - | - |
| 1778163441 | 23.33° C | - | - | 0 mm | 1.34 m/s, 41° | - | - |
| 1778162840 | 23.33° C | - | - | 0 mm | 0.89 m/s, 103° | - | - |
* Rain latest hour (hover to see other rain measurements)
** Current wind speed in m/s (hover to see current wind gust speed)